Wind_Speed
52 52 52 52 51 50 49 49 48 49 50 51 51 52 53 54 55 56 56 57 58 60 61 62 64 65 66 68 69 70 72 73 74 76 77 78 80 81 83 84 86 87 88 89 89 90 90 90 89 88 87 85 82 79 76 72 68 64 60 56 53 51 49 48 46 45 44 43 42 41 41 40 40 39 39 39 39 38 38 38 38 38 38 37 37 38
52 52 51 50 50 49 49 48 48 48 50 51 51 52 53 54 55 56 57 58 59 60 62 63 64 66 67 69 70 71 73 74 75 77 78 79 81 82 84 85 87 88 88 89 89 90 89 89 88 87 85 83 80 77 73 69 65 61 57 54 51 49 48 46 45 44 43 42 41 41 41 40 40 40 40 39 39 39 39 39 39 39 38 38 38 38
51 51 50 50 49 48 48 48 48 49 49 50 51 52 53 54 55 56 57 59 60 61 63 64 65 66 68 69 71 72 73 75 76 77 79 80 82 83 85 86 87 88 88 89 89 89 89 88 87 85 83 81 77 74 70 66 62 58 55 52 49 48 46 45 44 43 43 42 41 41 41 40 40 40 40 40 40 39 39 39 39 39 39 39 39 39
50 49 49 49 48 48 47 48 48 49 50 51 51 52 53 54 55 57 58 59 61 62 63 65 66 67 69 70 71 73 74 75 77 78 80 81 83 84 85 86 87 88 88 89 89 89 88 87 86 84 81 78 75 72 68 64 59 56 52 50 48 46 45 44 44 43 42 42 41 41 41 41 41 40 40 40 40 40 40 40 40 40 40 40 40 40
49 48 48 48 48 48 48 48 48 49 50 51 52 53 54 55 56 57 59 60 61 62 64 65 67 68 69 71 72 73 75 76 77 79 81 82 84 85 86 87 87 88 88 88 88 88 87 86 84 82 79 76 73 69 65 61 57 53 50 48 47 45 45 44 43 42 42 41 41 41 41 41 41 41 41 41 41 41 41 41 41 41 41 41 41 41
48 47 47 47 47 47 48 48 48 49 50 51 52 53 54 55 57 58 59 61 62 63 64 66 67 68 70 71 73 74 75 77 78 80 81 83 84 85 86 87 87 88 88 88 88 87 86 85 83 80 77 74 70 66 62 58 54 51 49 47 45 44 44 43 42 42 41 41 41 41 41 41 41 41 41 41 41 42 42 42 42 42 42 42 42 42
47 47 46 46 47 47 48 48 49 50 51 52 53 54 55 56 57 58 60 61 62 64 65 67 68 69 70 72 73 75 76 78 79 81 82 84 85 86 87 87 87 88 88 88 87 86 85 83 81 78 75 72 68 64 60 56 52 50 47 46 45 44 43 43 42 42 41 41 41 41 42 42 42 42 42 42 42 43 43 43 43 43 44 44 44 44
46 46 46 46 46 48 48 49 49 50 51 52 53 54 56 57 58 59 60 61 63 64 66 67 69 70 71 72 74 75 77 78 80 81 83 84 85 86 87 87 87 88 88 87 87 85 84 82 79 76 73 69 65 61 57 53 50 48 46 45 44 43 43 42 42 41 41 41 41 42 42 42 42 42 42 43 43 43 44 44 44 45 45 45 45 45
45 45 46 46 46 47 49 50 50 50 51 52 53 54 55 57 59 60 61 62 63 64 66 67 69 71 73 74 75 76 77 79 80 82 83 85 86 86 87 87 87 87 87 87 86 84 83 81 78 74 71 67 63 59 55 52 49 47 45 44 43 42 42 42 41 41 41 41 42 42 42 42 43 43 43 43 44 44 45 45 46 46 46 47 47 47
44 44 45 46 46 47 48 49 50 51 51 52 53 54 55 57 58 60 62 64 64 65 66 67 69 70 73 75 76 77 79 80 81 83 84 85 86 86 87 87 87 87 87 86 85 83 81 79 76 72 68 64 60 56 53 50 48 46 44 43 42 42 42 41 41 41 41 42 42 42 43 43 43 43 44 44 45 45 46 46 47 47 48 48 48 48
44 44 45 46 47 47 48 49 50 51 52 53 54 55 56 57 58 59 62 64 65 67 68 69 69 70 72 74 76 78 80 81 82 84 85 86 86 87 87 87 87 87 86 86 84 82 80 77 74 70 66 62 58 54 51 48 46 45 43 42 42 41 41 41 41 41 42 42 42 43 43 44 44 44 45 45 45 46 47 47 48 48 49 49 49 49
43 44 45 46 47 48 49 49 50 51 52 53 55 56 58 58 59 60 61 63 65 66 68 70 71 71 72 74 76 78 80 81 83 84 85 86 86 87 87 88 88 87 86 85 84 81 78 75 71 68 63 59 55 52 49 47 45 44 43 42 41 41 41 41 41 42 42 43 43 43 44 44 45 45 46 46 47 47 48 48 49 49 50 50 50 50
43 44 45 46 47 48 49 50 51 52 53 54 55 56 58 59 60 61 62 63 65 66 68 70 72 73 73 74 76 78 80 82 83 84 85 85 86 86 87 88 88 87 86 85 83 80 77 73 69 65 61 57 53 50 48 46 45 43 42 41 41 41 41 41 42 42 43 43 44 44 45 45 46 46 47 47 48 48 49 49 50 50 51 51 51 51
43 44 45 46 47 48 49 50 51 52 53 54 55 56 58 59 60 61 63 64 66 67 68 70 72 73 74 75 76 78 80 82 84 85 85 85 86 86 86 87 87 86 85 83 81 79 75 71 67 63 59 55 52 49 47 45 44 42 41 41 41 41 41 41 42 43 43 44 44 45 45 46 46 47 48 48 49 49 50 50 51 51 51 51 51 50
44 45 46 47 47 48 49 50 51 53 54 55 56 57 58 59 61 62 63 64 66 67 68 70 72 74 75 76 77 78 80 82 84 85 85 86 86 86 86 86 87 86 84 82 80 77 73 69 64 60 56 53 50 48 46 44 43 42 41 41 41 41 41 42 42 43 44 45 45 46 46 47 47 48 49 49 50 50 51 51 51 51 51 51 50 49
44 45 46 47 48 49 49 50 52 53 54 55 56 57 59 60 61 63 64 65 66 67 69 70 72 74 76 77 78 79 80 82 83 85 85 86 86 86 86 86 86 85 84 81 78 75 71 67 62 58 54 51 49 47 45 44 42 41 41 40 41 41 41 42 43 44 45 46 46 47 47 48 48 49 50 50 51 51 51 51 51 51 50 49 48 47
44 45 46 47 48 49 50 51 52 53 55 56 57 58 59 60 62 63 64 65 67 68 69 70 71 73 75 78 79 80 81 82 83 84 85 85 86 86 86 85 84 83 82 80 76 72 69 64 60 56 52 50 47 46 44 43 42 41 40 40 41 41 42 43 44 45 46 46 47 48 48 49 49 50 50 51 51 51 51 51 50 49 48 47 46 45
45 45 46 47 48 49 50 51 52 54 55 56 58 59 60 61 62 64 65 66 67 69 70 71 72 73 74 77 79 81 81 82 83 84 85 85 86 86 86 85 84 82 80 77 74 70 66 62 57 53 50 48 46 45 44 42 41 41 40 41 41 42 42 44 45 46 46 47 48 49 49 50 50 51 51 51 51 51 50 49 48 47 46 44 43 43
45 46 46 47 49 50 51 52 53 54 55 57 58 60 61 62 63 64 66 67 68 69 70 72 73 74 75 77 79 80 81 82 82 83 84 85 85 86 85 85 83 82 79 76 72 68 64 59 55 51 49 47 45 44 43 42 41 41 40 41 41 42 43 44 45 46 47 48 49 49 50 50 51 51 51 51 51 50 49 48 46 45 43 43 42 42
45 46 47 48 49 50 52 52 53 54 56 57 59 60 61 63 64 65 66 68 69 70 71 72 74 75 76 78 79 81 81 82 83 83 84 85 85 85 84 83 82 80 77 74 70 66 61 57 53 49 47 46 44 43 42 41 41 40 41 41 42 43 44 45 46 47 48 49 49 50 50 51 51 51 51 51 50 49 47 45 44 43 42 41 41 41
45 46 47 48 49 50 52 53 54 55 56 58 59 60 62 63 64 66 67 68 70 71 72 73 75 76 77 79 80 81 82 82 82 83 84 85 85 85 84 82 80 77 74 71 68 64 59 54 50 47 45 44 43 42 42 41 41 41 41 42 42 43 44 45 46 47 48 49 50 50 51 51 51 51 51 50 48 47 45 44 43 42 41 41 41 41
45 47 48 49 50 51 52 53 55 56 57 58 59 61 62 63 65 66 68 69 70 72 73 74 76 77 78 79 80 81 82 82 82 83 83 84 85 84 83 82 79 75 71 68 65 61 57 52 49 46 44 43 42 41 41 40 40 41 41 42 43 44 45 46 47 48 48 49 50 51 51 51 51 51 50 48 47 45 44 43 42 42 41 41 40 41
45 47 48 49 50 51 53 54 55 57 58 59 60 61 62 64 65 66 68 69 70 72 74 75 77 78 79 80 81 82 82 82 83 83 83 84 84 83 83 80 77 74 69 65 61 58 54 50 47 45 44 42 41 41 40 40 40 40 41 42 43 44 45 46 47 48 49 50 51 51 52 52 51 50 49 47 45 44 43 42 42 41 41 41 41 41
46 47 48 49 51 52 53 54 56 57 58 60 61 62 63 64 66 67 68 69 71 72 74 76 78 79 81 82 82 82 83 83 83 84 84 84 84 83 81 78 75 71 67 63 58 54 51 49 47 45 43 42 41 40 40 40 40 41 41 42 43 44 45 46 48 49 50 51 52 52 52 52 50 49 47 46 44 43 42 42 41 41 41 41 41 42
46 47 49 50 51 52 53 55 56 57 59 60 61 63 64 66 67 68 69 70 72 73 75 77 78 80 81 82 82 83 83 84 84 84 84 84 84 83 81 77 73 68 64 60 56 52 49 47 46 45 43 42 41 41 40 40 41 41 42 43 44 45 46 47 49 50 51 52 52 52 52 51 49 48 46 44 43 42 42 41 41 41 41 41 42 43
46 48 49 50 51 52 54 55 56 58 59 60 62 63 65 66 68 69 71 72 73 74 76 77 79 80 81 82 82 83 83 84 84 84 84 83 83 82 80 76 71 66 61 58 53 50 48 47 46 44 43 42 42 41 41 41 41 42 43 44 45 46 47 48 50 51 52 52 52 52 51 50 48 46 44 43 42 41 41 41 41 42 42 42 43 43
47 48 49 50 52 53 54 55 57 58 59 61 62 64 65 67 68 70 71 72 74 75 76 78 79 80 81 82 83 83 83 84 85 85 84 83 82 80 78 74 69 64 59 55 51 48 46 45 45 44 43 42 42 42 41 42 42 43 43 44 46 47 48 49 50 51 52 52 52 51 50 48 46 44 43 42 41 41 41 42 42 42 43 43 43 44
47 48 50 51 52 53 55 56 57 58 60 61 63 64 66 67 68 70 72 73 75 76 77 78 79 79 80 81 82 83 84 84 84 85 85 83 81 78 75 72 67 61 56 52 50 48 46 44 44 43 43 42 42 42 42 42 42 43 44 45 46 48 49 50 51 52 52 52 51 50 49 47 45 43 41 41 41 41 41 42 42 43 43 43 43 43
48 49 50 51 53 54 55 56 58 59 61 62 64 65 67 68 69 70 72 74 75 77 78 79 79 79 80 81 82 83 84 84 84 84 84 82 79 77 74 70 65 59 53 49 47 47 46 44 43 43 43 42 42 42 42 42 43 44 44 46 47 48 49 50 51 51 51 51 50 49 47 45 43 41 41 40 41 41 42 43 43 43 43 43 43 42
48 49 51 52 53 54 56 57 58 60 61 63 65 66 68 69 70 71 73 74 76 77 78 79 79 80 80 81 82 83 84 84 84 83 82 79 77 75 72 67 62 57 51 46 44 44 44 44 43 43 42 42 42 42 42 43 43 44 45 46 47 48 49 50 50 51 51 50 49 47 45 43 41 40 40 40 41 42 43 43 43 43 43 42 41 41
49 50 51 52 54 55 56 58 59 61 62 64 66 67 68 70 71 72 73 75 76 77 78 78 79 80 80 80 81 82 84 84 84 83 81 77 74 72 68 63 59 55 50 45 41 40 41 42 42 42 42 42 42 42 42 43 43 44 45 46 47 48 49 49 50 50 49 49 47 46 44 42 40 40 40 41 42 42 43 43 43 43 42 40 39 38
49 50 51 53 54 55 57 58 60 62 63 65 66 68 69 70 72 73 74 75 76 77 77 78 79 80 80 81 82 82 83 83 83 83 80 76 73 70 65 60 56 52 49 45 42 40 40 40 40 41 41 41 42 42 43 43 44 44 45 46 47 48 48 49 49 49 49 48 46 44 42 41 40 40 40 41 42 43 43 43 43 41 40 38 37 36
49 50 52 53 54 56 57 59 61 63 64 66 67 69 70 71 72 73 75 75 76 77 77 78 78 80 81 82 83 83 83 83 82 81 78 74 70 67 63 58 53 49 47 45 43 42 41 40 40 40 40 40 41 42 43 43 44 45 45 46 47 48 48 49 49 49 48 47 45 43 42 40 40 40 40 41 42 43 43 42 41 40 38 36 35 34
49 51 52 53 55 57 58 60 61 63 65 66 68 69 71 72 73 74 75 76 77 77 77 77 78 79 81 82 84 84 84 83 81 79 76 72 68 64 60 55 50 47 45 43 43 43 42 42 41 40 40 40 41 42 43 44 44 45 46 47 47 48 48 49 49 49 48 46 45 43 41 40 39 39 40 41 42 42 42 41 40 38 35 34 32 32
50 51 52 54 55 57 59 61 62 64 66 67 69 70 71 72 73 75 76 76 77 77 78 78 79 79 80 82 83 84 83 83 81 78 74 69 65 61 57 52 48 45 43 42 42 42 43 42 41 41 40 40 41 42 43 44 45 45 46 47 48 48 49 49 49 49 48 46 45 43 41 39 39 39 40 40 41 41 41 39 37 35 33 32 31 30
50 51 53 54 56 58 60 61 63 65 66 68 69 70 72 73 74 75 76 77 77 78 78 79 80 81 82 82 83 82 82 81 79 76 71 67 62 58 54 50 47 44 43 43 43 43 43 42 42 41 41 41 41 42 43 43 44 45 46 47 48 49 49 49 49 49 48 46 44 42 40 39 38 39 39 39 40 40 39 37 35 32 31 30 29 28
50 52 53 55 57 58 60 62 64 65 67 68 70 71 72 73 74 75 76 77 77 78 79 80 81 82 84 84 84 83 81 79 76 73 69 64 60 55 51 48 46 44 43 43 44 44 43 43 42 41 41 41 41 42 43 43 44 45 46 47 48 49 49 49 49 48 47 46 44 42 40 39 38 38 38 38 38 38 36 34 32 30 29 29 28 27
51 52 54 56 57 59 61 63 64 66 67 68 70 71 72 73 74 75 76 77 77 78 79 81 82 84 85 85 84 83 80 77 73 70 66 62 57 52 49 47 46 45 45 45 45 45 45 44 43 42 42 41 42 42 43 44 44 45 46 47 47 48 49 49 48 48 46 45 43 41 39 38 37 37 37 37 36 35 33 31 29 28 27 27 27 26
51 53 54 56 58 60 61 63 65 66 67 69 70 71 72 74 75 76 76 77 77 78 80 81 83 84 85 85 83 81 78 75 71 67 63 58 54 50 47 46 46 46 46 46 47 46 46 46 45 44 43 43 43 43 44 44 45 45 46 47 47 47 48 48 47 46 45 44 42 40 38 37 36 36 36 35 34 32 30 28 26 25 26 26 26 25
52 53 55 57 59 60 62 63 65 66 68 69 70 72 73 74 75 76 76 77 78 79 80 82 84 85 85 84 81 79 76 72 68 64 59 55 51 48 47 46 46 47 48 48 48 48 48 47 46 46 45 44 44 44 45 45 46 46 47 47 46 46 47 46 46 45 44 42 40 39 37 36 35 35 34 33 32 29 27 25 23 23 23 24 24 24
52 54 56 58 59 61 62 64 65 67 68 69 70 72 73 74 75 76 76 77 78 80 81 83 85 86 86 83 80 76 72 69 65 61 56 52 49 48 47 47 47 48 48 49 49 49 49 48 48 47 46 46 45 45 45 46 47 47 47 47 46 46 45 45 44 43 42 41 39 37 36 35 34 33 33 31 29 27 24 22 22 21 22 22 23 23
53 55 56 58 60 61 63 65 66 67 68 69 71 72 73 73 74 75 76 77 78 80 82 83 84 84 83 81 79 75 70 65 61 57 54 50 49 48 48 48 49 49 49 49 50 50 49 49 49 48 48 47 47 46 46 47 47 47 47 47 46 45 44 43 42 41 40 39 37 36 35 34 33 32 31 29 27 25 22 21 20 21 21 21 21 21
53 55 57 59 60 62 64 65 66 67 69 70 71 72 73 73 74 74 75 77 78 80 82 83 83 82 80 77 75 72 68 63 58 54 51 49 48 48 49 49 50 50 50 50 50 50 50 50 49 49 49 48 48 47 47 47 47 47 47 46 45 44 42 41 40 39 38 37 36 35 33 33 32 31 29 27 25 23 21 20 20 20 20 20 20 20
54 56 58 59 61 63 64 65 67 68 69 70 71 72 73 73 74 74 76 77 79 80 82 82 82 81 78 74 70 67 63 60 56 52 50 49 48 49 50 50 51 51 51 50 50 50 50 50 49 49 49 49 49 48 48 48 47 47 46 45 44 43 41 40 39 37 36 35 34 33 32 32 31 30 28 26 23 21 20 20 20 20 20 20 20 19
55 57 58 60 62 63 64 66 67 68 69 70 71 72 73 73 74 75 76 77 79 81 82 82 81 79 75 71 67 63 59 56 53 50 49 49 49 50 51 51 51 52 52 51 51 51 50 50 49 49 49 49 49 48 48 47 47 46 44 43 42 41 40 39 37 36 35 34 33 32 32 31 30 28 26 24 22 21 20 20 20 20 20 20 20 19
55 57 59 61 62 63 65 66 67 68 69 70 71 72 73 73 74 75 76 78 80 81 82 82 79 76 72 68 64 60 56 52 50 49 48 49 50 51 51 52 52 52 52 52 52 52 51 51 50 50 49 49 48 48 47 46 45 44 43 41 40 39 38 37 36 35 34 33 32 31 31 29 28 27 25 23 21 20 19 19 20 20 20 20 19 18
56 58 59 61 62 64 65 66 68 69 70 71 71 72 72 73 74 76 77 79 80 81 81 80 78 74 69 65 61 56 52 49 47 47 47 49 50 51 51 52 52 52 52 52 52 52 52 52 51 51 50 49 48 47 46 45 44 42 41 39 38 37 36 36 35 34 34 33 32 31 29 28 27 25 24 22 21 20 19 19 19 20 20 19 19 18
57 58 60 61 63 64 65 67 68 69 70 71 71 72 73 73 74 76 78 80 81 81 80 78 75 71 67 63 58 54 50 47 46 46 47 48 49 50 51 51 51 51 51 51 51 52 52 52 52 51 50 49 47 46 44 43 42 40 39 38 37 36 35 35 34 34 33 32 31 30 28 26 25 23 22 21 20 20 19 19 19 19 19 19 18 17
57 59 60 62 63 64 66 67 68 69 70 71 71 72 73 74 75 77 79 80 81 81 79 76 72 68 64 60 55 52 48 47 46 46 47 48 49 50 50 50 50 50 51 51 51 51 51 52 52 51 50 49 46 44 42 41 39 38 37 36 35 35 34 34 34 33 33 32 30 29 27 25 24 22 21 20 20 19 19 19 19 18 18 18 18 17
58 59 61 62 63 65 66 67 68 69 70 70 71 72 73 75 76 78 80 81 81 79 77 73 69 65 61 57 53 50 47 47 47 48 48 49 49 49 50 50 50 50 50 50 49 49 49 50 51 51 50 48 45 43 40 38 37 36 35 35 34 34 34 33 33 32 31 30 28 27 25 24 22 22 21 20 19 19 19 19 18 18 18 17 17 16
58 60 61 62 64 65 66 67 68 69 70 70 71 72 73 75 77 79 80 81 80 78 75 71 66 62 57 54 51 48 47 47 47 48 49 50 50 50 50 51 51 51 50 49 48 47 46 46 47 47 47 46 43 40 38 36 35 34 33 33 33 33 33 32 32 31 30 28 27 25 24 22 21 21 20 20 20 19 19 18 18 18 18 17 17 16
Wind_Direction
312 312 312 312 312 312 312 312 312 313 314 315 316 317 317 318 318 318 318 318 318 318 319 319 320 320 321 322 322 323 323 323 323 324 324 325 325 326 326 327 327 327 328 328 328 329 329 329 329 329 329 328 327 327 326 325 324 323 323 322 322 322 322 322 323 323 323 323 323 323 323 324 324 324 324 324 324 324 324 324 324 324 324 324 324 323
312 311 311 312 312 312 312 312 313 314 315 316 317 317 318 318 318 318 318 318 318 319 319 320 321 321 322 322 322 323 323 323 324 324 325 325 326 326 327 327 328 328 328 329 329 329 329 330 330 329 329 328 328 327 326 325 324 323 323 322 322 322 322 322 323 323 323 323 323 323 323 323 323 323 324 324 323 323 323 323 323 323 323 323 323 323
312 312 311 311 312 312 312 313 314 315 316 317 317 318 318 318 318 318 318 319 319 319 320 321 321 322 322 322 323 323 323 324 324 325 325 326 326 327 327 328 328 328 329 329 329 330 330 330 330 330 329 328 327 327 326 325 324 323 322 322 322 322 322 322 323 323 323 322 322 322 323 323 323 323 323 323 323 323 323 323 323 323 323 323 322 322
312 312 312 312 312 312 313 314 315 316 317 318 318 318 318 318 318 318 319 319 319 320 321 321 322 322 322 323 323 323 324 324 325 325 326 326 327 327 328 328 329 329 329 330 330 330 330 330 330 330 329 328 327 326 325 324 323 323 322 322 322 322 322 322 323 323 322 322 322 322 322 322 322 323 323 323 322 322 322 322 322 322 322 322 321 321
312 312 312 312 313 313 314 315 316 317 318 318 318 318 318 318 318 319 319 319 320 321 321 322 322 322 323 323 323 324 324 325 325 326 326 327 327 328 328 329 329 330 330 330 331 331 331 331 330 330 329 328 327 326 325 324 323 323 322 322 322 322 322 322 323 323 322 322 322 322 322 322 322 322 322 322 322 322 322 322 321 321 321 321 321 320
312 312 312 313 313 314 315 316 317 318 318 318 318 318 318 319 319 319 319 320 321 321 322 322 322 323 323 323 324 324 325 326 326 326 327 327 328 328 329 329 330 330 331 331 331 331 331 331 330 330 329 328 327 326 325 324 323 322 322 322 322 322 322 322 323 322 322 322 322 322 322 322 322 322 322 322 322 322 321 321 321 321 320 320 319 319
312 313 313 314 314 315 316 316 317 318 318 318 318 319 319 319 319 319 320 320 321 322 322 322 322 323 323 324 324 325 326 326 326 327 327 328 328 329 329 330 330 331 331 332 332 332 332 331 330 330 329 327 326 325 324 323 322 322 322 321 322 322 322 322 322 322 322 322 322 322 321 322 322 322 322 322 321 321 321 321 320 320 319 319 319 318
313 313 314 314 315 316 316 317 317 318 318 318 319 319 319 319 320 320 320 321 321 322 322 323 323 323 324 324 325 326 326 326 327 327 328 328 329 329 330 330 331 331 332 332 332 332 332 331 330 329 328 327 326 325 324 323 322 322 321 321 321 322 322 322 322 322 322 322 322 321 322 321 322 321 321 321 321 321 320 320 320 319 319 318 318 318
313 314 314 315 316 316 317 317 318 318 319 319 319 319 319 320 320 320 321 321 322 322 323 323 323 324 324 325 326 326 326 327 327 328 328 329 329 330 330 331 331 332 332 333 333 332 332 331 330 329 328 327 325 324 323 322 322 321 321 321 321 322 322 322 322 322 322 322 322 322 322 321 321 321 321 321 321 320 320 319 319 318 318 318 317 317
313 314 315 315 316 317 317 318 318 318 319 319 319 319 319 320 320 321 322 322 322 323 323 323 324 325 325 326 326 326 327 327 327 328 329 329 330 330 331 331 332 333 333 333 333 332 332 331 330 328 327 326 325 324 323 322 321 321 321 321 321 322 322 322 322 322 322 322 322 322 322 321 321 321 321 321 320 319 319 318 318 318 317 317 317 317
314 314 315 316 316 317 317 318 318 318 319 319 319 319 320 320 321 321 322 322 322 323 323 324 324 325 326 326 326 327 327 327 328 329 329 330 330 331 331 332 333 333 333 333 333 332 332 331 329 328 327 326 324 323 322 321 321 321 321 321 321 322 322 322 322 322 322 322 322 322 321 321 321 321 320 320 319 319 318 318 318 317 317 318 318 318
314 315 315 316 317 317 318 318 318 318 319 319 319 320 320 321 322 322 322 322 322 323 324 324 325 326 326 327 327 327 327 328 328 329 330 330 331 332 332 333 333 334 334 334 333 332 331 330 329 328 326 325 324 323 322 321 321 320 320 321 321 321 322 322 322 322 322 322 322 321 321 321 321 320 320 319 319 318 318 318 318 318 318 319 319 319
314 315 316 316 317 317 318 318 318 319 319 319 320 320 321 321 322 322 322 322 323 323 324 325 325 326 327 327 327 327 328 328 329 329 330 331 331 332 333 333 333 334 334 334 333 332 331 330 329 327 326 324 323 322 321 321 320 320 320 320 321 321 322 322 322 322 322 321 321 321 321 320 320 320 319 319 318 318 318 318 319 319 320 320 320 320
314 315 316 317 317 318 318 318 318 319 319 320 320 320 321 321 322 322 323 323 323 324 325 325 326 326 327 327 328 328 328 329 329 330 331 331 332 333 333 334 334 334 334 334 333 332 330 329 328 327 325 324 323 322 321 320 320 320 320 320 321 321 321 322 321 321 321 321 321 320 320 320 319 319 319 318 318 319 319 319 320 320 321 321 321 321
315 316 317 317 317 318 318 319 319 319 319 320 320 321 321 322 322 322 323 323 324 325 325 326 326 327 327 327 328 329 329 330 330 330 331 332 333 333 334 334 334 334 334 333 332 331 330 329 327 326 325 323 322 321 321 320 320 319 320 320 320 321 321 321 321 321 320 320 320 320 319 319 319 319 319 318 319 319 320 321 321 322 322 322 322 321
316 317 317 317 318 318 318 319 319 319 320 320 321 321 322 322 322 323 323 324 324 325 326 326 327 327 327 328 328 329 330 330 331 331 332 333 333 334 334 334 334 334 333 333 332 331 329 328 327 325 324 323 322 321 320 320 319 319 319 320 320 320 320 320 320 320 320 319 319 319 319 319 319 319 319 319 319 320 321 322 322 323 323 323 322 320
316 317 317 317 318 318 318 319 319 320 320 321 321 322 322 322 322 323 323 324 325 326 326 327 327 327 327 328 329 330 331 331 331 332 332 333 334 334 335 334 334 333 333 332 331 330 329 327 326 325 324 323 322 321 320 319 319 319 319 319 319 320 320 320 320 319 319 319 319 319 319 318 319 319 319 319 320 321 322 322 323 323 323 322 321 319
316 317 317 317 318 318 319 319 320 320 321 321 322 322 322 322 323 323 324 325 326 326 327 327 327 328 328 328 329 330 331 331 332 332 333 333 334 334 335 335 334 333 332 332 331 330 328 327 325 324 323 322 321 321 320 319 319 319 319 319 319 319 319 319 319 319 319 319 318 318 318 318 318 319 319 320 321 322 322 323 323 323 323 321 319 317
316 316 317 317 318 318 319 320 320 321 321 322 322 322 322 323 324 324 325 326 326 327 327 327 328 328 329 329 330 330 331 332 332 333 333 334 334 335 335 335 334 333 332 331 330 329 328 326 325 324 323 322 321 321 320 319 319 319 319 319 319 319 319 319 319 318 318 318 318 318 318 318 318 319 320 321 321 322 323 323 323 323 322 320 318 316
316 316 317 318 318 319 320 320 321 321 322 322 322 322 323 323 324 325 326 326 327 327 327 328 328 329 329 330 330 331 331 332 333 333 334 334 334 335 335 335 334 333 331 330 329 328 327 326 325 324 323 322 321 321 320 319 319 319 319 319 319 319 319 318 318 318 318 318 317 317 318 318 319 320 321 322 322 323 323 323 323 322 321 319 317 315
316 317 318 318 319 320 320 321 321 322 322 322 322 323 323 324 325 326 326 327 327 327 328 328 328 329 330 330 331 331 332 333 333 334 334 334 334 335 335 335 334 332 331 330 329 328 326 325 324 323 323 322 321 321 320 320 319 319 319 319 319 318 318 318 318 318 317 317 317 318 318 319 320 321 322 323 323 323 323 323 322 321 320 319 317 315
317 317 318 319 320 320 321 321 321 322 322 322 323 323 324 325 326 326 327 327 327 328 328 328 329 329 330 330 331 332 332 333 334 334 334 334 335 335 335 335 334 332 331 329 328 327 325 324 324 323 323 322 321 321 320 320 320 319 319 319 318 318 318 318 318 317 317 318 318 319 320 321 322 323 323 324 324 323 323 322 322 321 320 318 316 315
317 318 319 320 320 321 321 321 321 322 322 323 323 324 325 326 326 327 327 327 328 328 328 329 329 330 330 331 332 332 333 333 334 334 335 335 335 335 335 335 334 332 331 329 328 326 325 324 323 323 323 322 322 321 321 321 320 320 319 319 319 318 318 318 318 318 318 319 320 320 321 322 323 324 324 324 324 323 323 322 322 321 319 318 316 315
318 319 320 320 321 321 321 321 322 322 323 323 324 325 326 326 327 327 327 328 328 329 329 329 330 330 331 332 332 333 333 334 334 335 335 335 335 335 335 335 334 333 331 329 327 325 324 323 323 323 323 323 322 322 322 321 321 320 320 320 319 319 319 319 319 319 320 321 322 322 323 324 325 325 325 324 324 323 323 322 321 320 319 318 317 316
319 320 320 320 321 321 321 321 322 323 323 324 325 326 327 327 327 328 328 329 329 330 330 330 331 331 332 332 333 333 334 334 335 335 335 336 335 335 335 335 334 333 331 328 327 325 324 323 323 323 323 323 323 323 323 322 322 321 321 321 320 320 320 321 321 321 322 322 323 324 325 325 325 325 325 324 324 323 323 322 321 321 320 319 319 318
320 320 320 320 320 321 321 322 322 323 324 325 326 327 327 328 328 328 329 329 330 330 331 331 331 332 332 332 333 333 334 334 335 335 336 336 335 335 335 335 334 333 331 329 326 325 324 323 323 323 323 324 324 324 323 323 323 322 322 322 322 322 322 322 322 323 323 324 324 325 325 326 326 325 325 324 324 323 323 323 322 322 322 321 321 320
320 320 320 320 320 321 321 322 323 324 325 326 327 327 328 328 329 329 329 330 330 331 331 331 332 332 332 333 333 334 334 335 335 335 336 336 335 335 335 335 334 333 331 329 327 325 324 324 324 324 324 324 324 324 324 324 324 323 323 323 322 323 323 323 323 324 324 325 325 326 326 326 326 326 325 325 324 324 324 324 324 324 324 324 323 322
319 320 320 320 321 321 322 323 324 325 326 327 327 328 328 329 329 329 330 330 331 331 331 332 332 332 333 333 333 334 334 335 335 336 336 336 335 335 335 335 334 333 332 330 327 325 325 325 325 325 325 325 325 325 325 325 325 324 324 324 323 324 324 324 324 325 325 325 326 326 327 326 326 326 325 325 325 324 325 325 325 326 326 325 325 324
319 320 320 320 321 322 323 324 325 326 327 328 328 329 329 329 330 330 330 331 331 332 332 332 332 333 333 333 334 334 335 335 336 336 336 336 335 335 335 334 333 333 332 330 328 327 326 326 326 326 326 325 325 325 325 325 325 325 325 324 324 324 324 325 325 325 326 326 326 327 327 327 326 326 326 325 325 325 326 327 327 327 327 327 326 325
320 320 320 321 322 323 324 325 326 327 328 328 329 329 330 330 330 331 331 331 332 332 332 332 332 333 333 334 334 335 335 336 336 336 336 336 335 335 334 334 333 332 331 330 329 328 327 327 327 327 326 326 326 326 326 326 326 325 325 324 324 324 325 325 325 326 326 326 327 327 327 327 327 326 326 326 326 327 327 328 328 329 328 328 327 326
320 321 321 322 323 324 325 326 327 328 328 329 329 330 330 331 331 331 332 332 332 332 332 332 333 333 334 334 335 335 335 336 336 336 336 336 335 334 334 333 332 331 330 330 329 328 327 326 326 326 326 326 326 326 326 326 326 325 325 325 324 325 325 325 326 326 326 327 327 327 327 327 327 327 327 327 327 328 329 329 329 329 328 328 327 327
321 321 322 323 324 325 326 327 328 329 329 330 330 330 331 331 332 332 332 332 332 332 333 333 333 333 334 335 335 336 336 336 336 336 336 335 335 334 334 333 332 331 330 330 329 329 328 327 326 326 326 326 326 326 326 326 326 325 325 325 325 325 326 326 326 327 327 327 327 328 328 328 328 328 328 328 329 329 329 329 329 329 328 328 329 329
321 322 323 324 325 326 327 328 329 329 330 330 331 331 331 332 332 332 332 332 332 333 333 333 334 334 334 335 336 336 336 336 336 336 336 335 335 334 333 333 332 331 330 330 330 330 329 328 327 326 325 325 325 325 325 325 325 325 325 325 325 326 326 327 327 327 327 327 328 328 328 328 328 329 329 329 329 329 329 329 329 328 328 329 330 331
322 323 324 325 326 327 328 329 329 330 330 331 331 332 332 332 332 332 332 332 332 333 333 334 334 335 335 336 336 336 336 336 336 336 336 335 335 334 333 332 332 331 331 330 330 330 329 329 328 327 326 325 325 325 326 326 326 326 326 326 326 327 327 327 328 328 328 328 328 328 328 329 329 330 330 330 329 329 329 328 328 328 329 330 331 333
323 324 325 326 327 328 329 329 330 331 331 331 332 332 332 332 332 332 333 333 333 333 334 334 335 335 336 336 337 337 337 336 336 336 336 335 335 334 333 333 332 332 331 331 331 330 330 329 328 327 326 326 326 326 326 326 327 327 327 327 327 327 328 328 328 328 328 328 328 329 329 330 330 330 330 330 329 328 328 328 328 328 329 331 333 334
324 325 326 327 328 329 329 330 331 331 332 332 332 333 333 333 333 333 333 333 334 334 334 335 335 336 336 337 337 337 337 337 336 336 336 335 335 334 334 333 333 333 332 332 331 331 330 330 329 328 327 326 326 326 326 327 327 327 328 328 328 328 328 328 328 328 328 328 329 329 330 331 331 331 330 329 328 327 327 327 328 329 330 332 333 335
325 326 327 328 329 330 330 331 331 332 332 332 333 333 333 333 333 333 333 334 334 334 335 335 336 336 337 337 337 337 337 337 336 336 335 335 335 335 334 334 333 333 333 332 332 332 331 330 329 329 328 327 327 326 327 327 327 328 328 328 328 328 328 328 328 328 328 329 329 330 331 331 331 330 329 328 327 327 327 328 328 330 331 333 334 335
326 327 328 329 330 330 331 331 332 332 333 333 333 333 333 333 333 334 334 334 335 335 335 336 336 337 337 338 338 338 337 337 337 336 336 335 335 335 335 335 334 334 334 333 333 332 332 331 330 330 329 328 328 327 327 328 328 328 329 329 329 329 329 328 328 328 329 329 330 330 331 331 331 330 329 328 327 327 327 328 329 331 332 333 334 335
326 327 328 329 330 331 331 332 332 332 333 333 333 333 333 334 334 334 335 335 335 336 336 336 337 337 338 338 338 338 337 337 337 336 336 336 336 336 336 335 335 334 334 334 333 333 332 332 331 331 330 330 329 329 329 329 329 329 329 330 329 329 329 329 328 328 329 329 330 331 331 331 331 329 328 328 328 328 328 329 330 332 333 334 334 335
327 328 329 330 331 331 332 332 332 333 333 333 333 334 334 334 334 335 335 335 336 336 337 337 337 338 338 338 338 338 338 337 337 336 336 336 336 336 336 336 335 335 335 334 334 333 333 332 332 332 332 331 331 331 331 330 330 330 330 330 330 330 329 329 328 329 329 330 331 331 332 331 330 329 329 328 329 329 330 331 332 333 334 334 335 335
328 329 330 331 331 331 332 332 333 333 333 333 334 334 334 335 335 335 336 336 336 337 337 338 338 338 338 338 338 338 338 337 337 337 337 337 337 337 337 336 336 336 335 335 334 333 333 333 333 333 333 333 333 332 332 332 332 331 331 331 331 331 330 329 329 329 329 330 331 332 332 331 330 330 330 330 330 331 332 333 334 335 336 336 336 336
329 330 330 331 331 332 332 332 333 333 334 334 334 334 335 335 336 336 336 336 337 337 338 338 339 339 339 338 338 338 337 337 337 337 337 337 337 337 337 337 336 336 336 335 334 334 334 334 334 334 334 334 334 334 334 333 333 332 332 332 332 331 331 330 330 330 330 331 332 333 333 332 331 331 331 332 332 333 334 335 336 337 338 338 338 337
330 330 331 331 331 332 332 333 333 334 334 334 334 335 335 335 336 336 337 337 337 338 338 339 339 339 339 338 338 338 337 337 337 338 338 338 338 338 337 337 337 336 336 335 335 334 334 334 334 335 335 335 335 335 335 334 334 333 333 333 332 332 331 331 330 330 331 332 333 334 334 333 333 332 333 334 335 335 336 337 338 339 340 341 341 340
330 331 331 331 332 332 333 333 334 334 334 335 335 335 336 336 336 337 337 337 338 338 338 339 339 339 339 339 338 338 338 337 337 338 338 338 338 338 338 337 337 337 336 336 335 335 335 335 335 335 335 335 335 335 335 335 334 334 333 333 333 332 332 331 332 332 333 334 335 335 335 335 334 334 336 337 338 338 338 339 340 342 343 344 344 344
330 331 331 332 332 333 333 334 334 334 335 335 335 336 336 336 337 337 338 338 338 339 339 339 339 339 339 339 339 338 338 338 338 338 338 338 338 338 338 338 338 337 337 336 336 335 335 335 335 335 336 336 336 336 336 335 335 334 334 333 333 332 332 333 333 334 335 336 337 337 337 337 337 337 338 340 341 342 342 342 343 344 345 347 348 348
331 331 332 333 333 333 334 334 334 335 335 335 336 336 337 337 337 338 338 338 339 339 339 339 340 340 339 339 339 339 338 338 338 338 339 339 339 339 339 338 338 338 337 337 336 336 335 335 335 336 336 336 336 336 336 335 335 334 334 334 334 333 333 334 335 336 338 339 339 340 340 339 340 341 342 344 345 345 345 345 345 346 348 350 352 353
331 332 332 333 333 334 334 334 335 335 335 336 336 337 337 337 338 338 338 339 339 340 340 340 340 340 340 339 339 339 339 339 339 339 339 339 339 339 339 339 339 339 338 338 337 337 336 335 335 336 336 337 337 337 336 336 335 335 335 335 335 335 335 336 337 339 340 341 342 342 343 343 344 345 346 348 349 349 348 348 348 348 350 352 355 357
332 333 333 334 334 334 335 335 335 336 336 336 337 337 337 338 338 339 339 339 340 340 340 340 340 340 340 340 340 340 340 340 340 340 339 339 339 339 340 340 340 340 339 339 338 338 337 336 335 336 336 337 337 338 337 337 336 336 336 337 337 337 338 339 340 341 342 344 345 346 347 348 349 350 351 351 352 352 351 350 350 351 352 355 357 360
333 333 334 334 334 335 335 335 336 336 336 337 337 338 338 338 339 339 340 340 340 340 340 340 340 340 340 340 340 340 341 341 341 341 340 340 340 340 340 340 340 340 340 339 339 338 337 336 335 335 336 337 338 338 339 339 338 338 338 339 339 340 340 341 342 344 345 347 349 350 352 353 354 355 355 355 355 354 354 353 353 353 354 356 358 0
333 334 334 334 335 335 335 336 336 337 337 337 338 338 338 339 339 340 340 340 341 341 341 341 341 341 340 340 341 341 342 342 342 341 341 341 341 341 341 340 340 340 340 339 339 339 338 336 335 335 335 337 338 340 341 341 341 341 340 341 341 342 343 344 345 347 349 351 354 355 357 358 358 358 358 358 357 357 356 356 355 355 355 356 357 359
334 334 335 335 335 336 336 336 337 337 337 338 338 339 339 339 340 340 340 341 341 341 341 341 341 341 341 341 342 342 343 343 342 342 342 342 342 341 341 340 340 340 340 339 339 339 339 337 336 335 335 337 339 341 343 344 344 343 343 343 344 345 346 347 349 351 354 357 359 1 2 2 2 2 1 1 360 359 359 358 357 356 356 355 356 357
Height
5690 5687 5685 5683 5681 5678 5676 5674 5672 5670 5667 5664 5662 5660 5657 5654 5651 5648 5646 5643 5640 5637 5634 5631 5627 5624 5621 5617 5614 5610 5606 5603 5599 5595 5591 5587 5583 5579 5574 5569 5564 5559 5554 5548 5543 5538 5532 5527 5521 5515 5510 5504 5499 5494 5489 5484 5480 5477 5473 5470 5467 5464 5461 5458 5456 5453 5451 5448 5446 5444 5442 5440 5437 5435 5433 5431 5428 5426 5424 5422 5420 5418 5416 5414 5412 5410
5687 5685 5682 5680 5678 5676 5674 5671 5669 5667 5665 5662 5659 5657 5654 5651 5648 5645 5642 5640 5637 5634 5631 5627 5624 5621 5617 5613 5610 5607 5603 5599 5595 5591 5587 5583 5579 5575 5570 5565 5560 5555 5549 5544 5539 5533 5527 5522 5516 5511 5505 5500 5494 5490 5485 5481 5477 5473 5470 5467 5464 5461 5458 5456 5453 5451 5449 5446 5444 5442 5440 5437 5435 5433 5431 5428 5426 5424 5422 5419 5417 5416 5414 5412 5410 5408
5685 5682 5680 5678 5676 5674 5672 5669 5666 5664 5662 5659 5657 5654 5652 5649 5646 5643 5640 5637 5633 5630 5627 5624 5621 5617 5614 5610 5607 5603 5599 5595 5591 5587 5583 5579 5575 5570 5566 5561 5556 5551 5545 5540 5534 5528 5523 5517 5512 5506 5501 5495 5490 5486 5481 5477 5473 5470 5467 5464 5461 5458 5456 5453 5451 5449 5446 5444 5442 5439 5437 5435 5433 5430 5428 5426 5424 5422 5419 5417 5415 5413 5411 5410 5408 5406
5682 5679 5677 5675 5673 5671 5669 5667 5664 5661 5659 5656 5654 5651 5648 5646 5643 5640 5637 5634 5631 5627 5623 5621 5617 5614 5610 5607 5603 5600 5596 5592 5587 5583 5579 5575 5570 5566 5562 5557 5552 5546 5541 5535 5529 5524 5518 5512 5507 5502 5496 5491 5486 5482 5478 5474 5470 5467 5464 5461 5459 5456 5453 5451 5449 5446 5444 5442 5439 5437 5435 5432 5430 5428 5426 5424 5422 5419 5417 5415 5413 5411 5409 5407 5405 5403
5679 5677 5674 5672 5670 5668 5666 5664 5662 5659 5656 5653 5651 5648 5646 5643 5640 5637 5634 5631 5628 5624 5621 5617 5614 5611 5607 5603 5599 5596 5592 5588 5584 5579 5575 5570 5566 5562 5557 5552 5547 5542 5536 5531 5525 5519 5513 5507 5502 5497 5492 5487 5482 5478 5474 5471 5467 5464 5462 5459 5456 5454 5451 5449 5447 5444 5442 5440 5437 5435 5433 5430 5428 5426 5424 5421 5419 5417 5415 5413 5411 5409 5407 5405 5403 5401
5676 5674 5672 5670 5667 5665 5663 5661 5659 5657 5654 5651 5648 5646 5643 5640 5637 5634 5631 5628 5624 5621 5617 5614 5611 5607 5604 5600 5596 5592 5588 5584 5580 5576 5571 5567 5562 5557 5552 5548 5543 5537 5532 5526 5520 5514 5509 5503 5498 5493 5488 5483 5479 5475 5471 5468 5464 5462 5459 5456 5454 5451 5449 5447 5444 5442 5440 5437 5435 5432 5430 5428 5426 5423 5421 5419 5417 5415 5412 5410 5408 5407 5405 5403 5401 5398
5673 5671 5669 5667 5665 5662 5661 5659 5657 5654 5652 5648 5646 5642 5640 5637 5634 5631 5628 5625 5622 5618 5614 5610 5607 5604 5601 5597 5593 5589 5584 5580 5576 5571 5567 5562 5557 5553 5548 5543 5538 5533 5527 5521 5516 5510 5504 5499 5493 5488 5484 5479 5475 5472 5468 5465 5462 5459 5456 5454 5451 5449 5447 5444 5442 5439 5437 5435 5432 5430 5428 5426 5423 5421 5419 5417 5414 5412 5410 5408 5406 5404 5402 5400 5398 5396
5670 5668 5667 5665 5662 5660 5657 5656 5654 5652 5649 5647 5643 5641 5637 5634 5631 5628 5625 5622 5619 5616 5612 5607 5603 5599 5596 5593 5589 5585 5581 5577 5572 5567 5563 5558 5553 5548 5543 5538 5533 5528 5522 5516 5511 5505 5500 5494 5489 5485 5480 5476 5472 5468 5465 5462 5459 5456 5454 5451 5449 5446 5444 5442 5439 5437 5435 5432 5430 5428 5426 5423 5421 5418 5416 5414 5412 5410 5407 5405 5403 5401 5399 5397 5395 5393
5668 5666 5664 5662 5660 5658 5655 5652 5650 5648 5647 5644 5642 5639 5636 5632 5628 5624 5621 5618 5616 5613 5610 5606 5602 5596 5592 5587 5584 5581 5577 5573 5568 5564 5559 5554 5549 5544 5539 5533 5528 5523 5517 5511 5506 5501 5495 5490 5485 5481 5477 5472 5469 5465 5462 5459 5456 5454 5451 5449 5446 5444 5442 5439 5437 5435 5432 5430 5428 5426 5423 5421 5419 5416 5414 5412 5409 5407 5405 5402 5400 5398 5396 5394 5392 5390
5666 5664 5662 5659 5657 5656 5654 5651 5648 5645 5643 5641 5638 5636 5634 5631 5627 5622 5618 5614 5611 5608 5606 5603 5600 5596 5590 5584 5579 5576 5572 5568 5564 5559 5555 5550 5545 5539 5534 5529 5524 5519 5513 5507 5502 5496 5491 5486 5481 5477 5473 5469 5465 5462 5459 5456 5453 5451 5449 5446 5444 5442 5439 5437 5435 5432 5430 5428 5425 5423 5421 5418 5416 5414 5412 5409 5407 5405 5402 5400 5397 5395 5393 5391 5389 5387
5663 5661 5659 5657 5655 5653 5651 5649 5646 5643 5641 5638 5635 5632 5630 5628 5626 5622 5617 5612 5608 5604 5601 5598 5596 5594 5590 5584 5577 5572 5567 5563 5559 5555 5550 5544 5539 5534 5528 5523 5518 5514 5509 5503 5497 5492 5488 5483 5478 5473 5470 5466 5462 5459 5456 5453 5451 5448 5446 5444 5442 5439 5437 5435 5432 5430 5427 5425 5423 5421 5418 5416 5414 5411 5409 5407 5404 5402 5400 5397 5395 5392 5390 5388 5386 5383
5661 5659 5657 5655 5653 5650 5648 5646 5643 5641 5638 5636 5633 5629 5626 5624 5622 5619 5616 5611 5607 5603 5599 5594 5591 5588 5586 5582 5577 5570 5564 5559 5555 5551 5547 5541 5535 5529 5523 5517 5512 5507 5503 5498 5492 5487 5483 5479 5474 5470 5466 5463 5459 5456 5453 5451 5448 5446 5444 5441 5439 5437 5434 5432 5430 5427 5425 5423 5420 5418 5416 5413 5411 5409 5406 5404 5402 5399 5397 5394 5392 5390 5387 5385 5382 5380
5658 5657 5655 5652 5650 5648 5646 5643 5641 5638 5636 5633 5631 5627 5624 5621 5618 5615 5612 5609 5605 5602 5597 5592 5587 5584 5581 5578 5574 5569 5562 5556 5551 5547 5543 5538 5532 5527 5520 5513 5507 5502 5498 5494 5488 5483 5479 5475 5470 5466 5463 5459 5457 5453 5451 5448 5446 5443 5441 5439 5437 5434 5432 5430 5427 5425 5422 5420 5418 5415 5413 5411 5408 5406 5403 5401 5399 5396 5394 5392 5389 5387 5384 5381 5379 5376
5656 5654 5652 5650 5648 5646 5643 5641 5638 5635 5633 5631 5628 5626 5622 5619 5616 5613 5610 5606 5602 5598 5595 5590 5585 5580 5577 5574 5571 5566 5560 5553 5547 5542 5537 5532 5528 5523 5517 5510 5503 5498 5495 5490 5485 5479 5475 5471 5467 5463 5460 5457 5453 5451 5448 5446 5443 5441 5439 5437 5434 5432 5430 5427 5425 5422 5420 5417 5415 5413 5410 5408 5406 5403 5401 5398 5396 5393 5391 5389 5386 5383 5381 5378 5375 5372
5654 5652 5649 5647 5645 5643 5641 5638 5636 5633 5630 5628 5625 5622 5619 5616 5613 5610 5607 5603 5599 5596 5592 5587 5582 5576 5572 5569 5567 5564 5558 5551 5544 5538 5533 5528 5522 5518 5513 5507 5500 5494 5490 5486 5481 5476 5471 5467 5464 5460 5457 5454 5451 5448 5446 5443 5441 5438 5436 5434 5432 5430 5427 5425 5422 5420 5417 5415 5412 5410 5408 5405 5403 5400 5398 5395 5393 5391 5388 5385 5383 5380 5377 5375 5372 5369
5651 5649 5647 5645 5642 5640 5638 5636 5633 5630 5627 5625 5622 5619 5617 5613 5610 5607 5604 5600 5597 5593 5590 5586 5581 5575 5568 5563 5560 5558 5555 5548 5541 5535 5530 5525 5518 5513 5508 5503 5497 5491 5486 5482 5477 5472 5468 5464 5460 5457 5454 5451 5448 5446 5443 5441 5438 5436 5434 5432 5429 5427 5425 5422 5420 5417 5415 5412 5410 5407 5405 5402 5400 5397 5395 5392 5390 5387 5385 5382 5380 5377 5375 5372 5368 5365
5649 5647 5645 5642 5640 5638 5636 5633 5631 5628 5625 5622 5619 5616 5614 5611 5607 5604 5601 5597 5594 5590 5586 5583 5579 5575 5569 5562 5556 5552 5549 5545 5538 5532 5526 5521 5515 5509 5504 5499 5494 5488 5483 5479 5474 5470 5465 5461 5457 5454 5451 5448 5445 5443 5441 5438 5436 5434 5432 5429 5427 5425 5422 5420 5417 5415 5412 5410 5407 5405 5402 5400 5397 5395 5392 5390 5387 5385 5382 5380 5377 5375 5372 5369 5365 5362
5647 5645 5642 5640 5638 5636 5633 5631 5628 5625 5622 5619 5616 5613 5610 5607 5604 5601 5597 5594 5590 5586 5582 5578 5575 5571 5568 5562 5556 5550 5546 5542 5536 5529 5523 5517 5512 5506 5500 5494 5489 5483 5479 5475 5471 5467 5462 5458 5455 5452 5448 5446 5443 5440 5438 5436 5433 5431 5429 5427 5424 5422 5420 5417 5415 5412 5410 5407 5404 5402 5399 5397 5394 5392 5389 5387 5385 5382 5380 5377 5374 5372 5369 5365 5362 5359
5644 5642 5640 5638 5635 5633 5631 5628 5626 5623 5620 5617 5613 5610 5607 5603 5600 5597 5594 5590 5586 5582 5579 5575 5571 5567 5563 5558 5553 5548 5543 5538 5532 5526 5520 5515 5509 5503 5498 5492 5485 5479 5474 5471 5467 5463 5460 5456 5452 5449 5446 5443 5441 5438 5436 5433 5431 5429 5427 5424 5422 5419 5417 5414 5412 5409 5407 5404 5402 5399 5397 5394 5392 5389 5387 5384 5382 5379 5377 5374 5371 5368 5365 5362 5359 5356
5642 5640 5638 5636 5633 5630 5628 5625 5623 5621 5617 5614 5611 5608 5604 5601 5597 5594 5590 5586 5582 5578 5575 5571 5567 5562 5558 5554 5549 5544 5539 5534 5529 5522 5516 5511 5506 5501 5496 5490 5484 5477 5472 5467 5462 5459 5456 5453 5450 5446 5443 5441 5438 5435 5433 5431 5428 5426 5424 5422 5419 5417 5414 5412 5409 5407 5404 5402 5399 5397 5394 5392 5389 5387 5384 5382 5379 5377 5374 5371 5368 5365 5362 5359 5356 5352
5640 5637 5635 5633 5631 5628 5625 5622 5620 5617 5614 5612 5608 5605 5602 5598 5594 5590 5587 5583 5579 5574 5570 5566 5562 5558 5554 5550 5545 5540 5535 5531 5526 5520 5514 5508 5502 5497 5492 5487 5481 5475 5469 5464 5459 5455 5452 5450 5447 5444 5441 5438 5436 5433 5431 5428 5426 5424 5421 5419 5417 5414 5412 5409 5407 5404 5402 5399 5397 5394 5391 5389 5386 5384 5381 5379 5376 5373 5370 5367 5365 5362 5359 5356 5353 5350
5638 5635 5632 5630 5628 5626 5623 5620 5617 5614 5612 5609 5606 5602 5599 5595 5591 5587 5583 5579 5575 5571 5566 5562 5558 5554 5550 5546 5542 5536 5531 5527 5522 5518 5512 5506 5500 5494 5489 5483 5477 5471 5466 5461 5457 5452 5448 5446 5444 5442 5439 5436 5434 5431 5429 5426 5424 5422 5419 5417 5414 5412 5409 5407 5404 5402 5399 5396 5394 5391 5389 5386 5383 5381 5378 5375 5372 5370 5367 5364 5361 5358 5356 5353 5350 5347
5636 5633 5630 5628 5625 5623 5620 5617 5614 5612 5609 5606 5603 5600 5596 5593 5589 5585 5581 5577 5572 5568 5563 5559 5554 5549 5544 5541 5536 5531 5526 5522 5517 5512 5507 5502 5497 5491 5487 5481 5475 5468 5462 5458 5454 5450 5445 5442 5440 5438 5436 5434 5432 5429 5427 5424 5422 5419 5417 5414 5412 5409 5407 5404 5402 5399 5396 5393 5391 5388 5385 5383 5380 5377 5374 5372 5369 5366 5363 5361 5358 5356 5353 5350 5347 5344
5633 5631 5628 5625 5623 5620 5617 5615 5612 5609 5606 5602 5599 5596 5592 5589 5585 5582 5578 5574 5570 5565 5560 5555 5550 5544 5539 5534 5530 5525 5521 5516 5512 5508 5503 5497 5492 5487 5482 5478 5473 5467 5460 5455 5451 5447 5443 5440 5437 5436 5433 5431 5429 5427 5424 5422 5420 5417 5415 5412 5410 5407 5404 5402 5399 5396 5393 5390 5387 5385 5382 5379 5377 5374 5371 5368 5366 5363 5360 5358 5355 5352 5350 5347 5344 5341
5631 5628 5626 5623 5621 5618 5615 5612 5609 5606 5603 5600 5596 5592 5588 5585 5581 5577 5573 5570 5566 5561 5556 5551 5546 5540 5535 5531 5527 5522 5517 5512 5507 5503 5499 5494 5487 5482 5477 5473 5469 5464 5458 5452 5448 5445 5441 5437 5435 5432 5430 5428 5426 5424 5422 5419 5417 5414 5412 5409 5407 5404 5402 5398 5396 5393 5390 5387 5384 5381 5378 5376 5373 5370 5367 5365 5362 5360 5357 5355 5352 5349 5347 5344 5341 5338
5628 5626 5624 5621 5619 5616 5613 5610 5607 5604 5601 5597 5593 5590 5586 5582 5577 5573 5569 5566 5562 5557 5553 5547 5542 5536 5531 5526 5522 5518 5513 5508 5502 5498 5494 5489 5484 5479 5473 5469 5465 5461 5455 5450 5445 5442 5439 5435 5432 5429 5427 5425 5423 5421 5419 5417 5414 5412 5409 5406 5404 5401 5398 5395 5392 5389 5386 5383 5381 5378 5375 5372 5370 5367 5364 5362 5359 5357 5354 5352 5349 5346 5343 5341 5337 5335
5627 5624 5622 5619 5617 5614 5611 5608 5605 5601 5598 5594 5591 5587 5583 5579 5575 5570 5566 5562 5558 5553 5549 5544 5539 5534 5527 5522 5517 5513 5509 5505 5499 5493 5488 5484 5479 5475 5470 5466 5462 5458 5453 5447 5442 5439 5437 5434 5431 5427 5425 5423 5421 5418 5416 5414 5411 5409 5406 5403 5401 5398 5395 5392 5389 5386 5383 5380 5377 5374 5372 5369 5367 5364 5361 5359 5356 5354 5351 5349 5346 5343 5340 5337 5334 5332
5624 5622 5619 5617 5614 5611 5608 5605 5602 5598 5595 5591 5587 5584 5580 5577 5572 5567 5562 5558 5554 5549 5544 5540 5536 5532 5526 5520 5514 5509 5505 5502 5496 5491 5485 5479 5474 5469 5466 5462 5458 5455 5452 5446 5441 5436 5433 5431 5428 5426 5422 5420 5418 5416 5414 5411 5409 5406 5403 5400 5397 5395 5392 5389 5386 5383 5380 5377 5374 5372 5369 5366 5364 5361 5358 5356 5353 5351 5348 5346 5343 5340 5337 5334 5332 5328
5622 5620 5617 5615 5612 5609 5605 5602 5599 5595 5592 5588 5584 5581 5577 5573 5570 5565 5560 5556 5551 5546 5540 5536 5532 5528 5523 5518 5512 5506 5500 5496 5492 5487 5482 5476 5470 5465 5461 5457 5454 5452 5450 5446 5440 5435 5430 5427 5425 5423 5420 5418 5416 5413 5411 5409 5406 5403 5401 5398 5395 5392 5389 5386 5383 5380 5377 5374 5372 5369 5366 5364 5361 5358 5356 5353 5351 5348 5345 5342 5340 5337 5334 5332 5329 5326
5620 5617 5615 5612 5609 5606 5603 5599 5596 5592 5589 5585 5582 5577 5573 5570 5566 5562 5557 5552 5548 5543 5538 5532 5528 5524 5520 5515 5510 5503 5497 5491 5487 5483 5478 5473 5467 5463 5459 5454 5450 5448 5447 5445 5441 5436 5431 5426 5422 5420 5418 5416 5413 5411 5409 5407 5404 5401 5398 5395 5392 5390 5387 5384 5381 5378 5375 5372 5369 5366 5364 5361 5359 5356 5353 5351 5348 5345 5342 5340 5337 5335 5332 5329 5327 5324
5617 5615 5612 5609 5606 5603 5600 5596 5593 5589 5586 5582 5578 5574 5570 5566 5562 5557 5553 5549 5545 5540 5535 5530 5525 5520 5516 5512 5508 5503 5497 5490 5484 5479 5475 5470 5465 5460 5457 5453 5448 5445 5442 5442 5440 5437 5433 5428 5423 5419 5416 5413 5411 5409 5407 5404 5402 5399 5396 5393 5390 5387 5385 5382 5379 5376 5372 5370 5367 5364 5362 5359 5356 5354 5351 5348 5345 5342 5340 5337 5335 5332 5330 5327 5325 5322
5615 5612 5610 5607 5603 5600 5597 5593 5590 5586 5582 5579 5575 5571 5567 5562 5558 5554 5550 5546 5542 5537 5533 5528 5522 5517 5512 5507 5503 5499 5494 5489 5483 5477 5472 5467 5462 5457 5453 5450 5446 5442 5439 5437 5436 5434 5432 5429 5425 5420 5416 5413 5410 5407 5404 5402 5400 5397 5394 5391 5388 5386 5383 5380 5377 5373 5371 5367 5365 5362 5359 5357 5354 5351 5348 5346 5342 5340 5337 5335 5332 5330 5328 5326 5323 5321
5613 5610 5607 5604 5601 5597 5594 5591 5587 5583 5580 5576 5572 5567 5563 5559 5555 5551 5547 5542 5538 5534 5530 5526 5520 5514 5508 5502 5497 5492 5488 5484 5479 5474 5469 5464 5459 5455 5450 5447 5444 5441 5437 5434 5432 5430 5428 5426 5423 5420 5417 5413 5409 5406 5403 5400 5397 5394 5392 5389 5386 5383 5380 5377 5374 5371 5368 5365 5362 5360 5357 5354 5352 5349 5346 5343 5340 5337 5335 5332 5330 5328 5326 5324 5322 5320
5611 5608 5605 5602 5598 5595 5592 5588 5584 5581 5577 5573 5569 5564 5560 5556 5551 5547 5543 5538 5534 5530 5526 5522 5518 5513 5507 5501 5494 5488 5482 5478 5474 5470 5465 5461 5456 5452 5448 5445 5442 5439 5436 5433 5430 5427 5425 5422 5420 5418 5415 5412 5408 5405 5401 5398 5395 5392 5389 5386 5383 5380 5377 5375 5372 5369 5366 5363 5360 5357 5355 5352 5349 5347 5343 5341 5338 5335 5333 5331 5328 5327 5325 5323 5321 5319
5608 5605 5602 5599 5596 5592 5589 5585 5582 5578 5574 5570 5566 5562 5557 5553 5548 5544 5539 5535 5530 5525 5521 5517 5513 5509 5504 5499 5493 5487 5480 5474 5469 5465 5461 5457 5453 5449 5445 5442 5439 5437 5434 5431 5428 5426 5423 5420 5418 5415 5413 5410 5407 5404 5400 5397 5393 5390 5386 5383 5380 5377 5374 5372 5369 5366 5363 5360 5357 5355 5352 5350 5347 5344 5341 5339 5336 5333 5331 5329 5327 5325 5323 5321 5319 5317
5606 5603 5600 5597 5593 5590 5586 5582 5579 5575 5571 5567 5562 5558 5554 5550 5545 5541 5536 5531 5526 5522 5517 5512 5507 5503 5499 5494 5490 5484 5478 5472 5467 5462 5457 5453 5450 5446 5442 5439 5436 5434 5432 5429 5426 5424 5421 5418 5416 5413 5411 5408 5405 5402 5399 5395 5392 5388 5384 5381 5377 5374 5372 5369 5366 5363 5360 5357 5355 5352 5350 5347 5345 5342 5339 5337 5334 5332 5329 5327 5325 5323 5321 5320 5318 5316
5604 5601 5597 5594 5591 5587 5584 5580 5576 5572 5568 5564 5559 5555 5551 5546 5542 5537 5532 5527 5522 5517 5512 5507 5503 5498 5493 5489 5484 5479 5474 5469 5463 5458 5454 5449 5446 5443 5440 5436 5433 5431 5429 5427 5424 5421 5419 5416 5414 5411 5408 5406 5403 5400 5397 5393 5390 5387 5383 5379 5375 5372 5368 5366 5363 5360 5357 5355 5352 5350 5347 5345 5342 5340 5338 5335 5333 5330 5327 5325 5323 5321 5320 5318 5317 5315
5602 5598 5595 5592 5588 5585 5581 5577 5573 5570 5566 5562 5557 5552 5548 5543 5538 5534 5529 5524 5519 5514 5509 5504 5499 5494 5489 5484 5479 5474 5469 5464 5459 5455 5450 5446 5443 5440 5437 5434 5431 5428 5426 5424 5421 5419 5416 5413 5411 5409 5406 5403 5401 5397 5394 5391 5388 5385 5382 5378 5374 5370 5366 5363 5360 5357 5354 5352 5350 5347 5345 5343 5341 5338 5336 5334 5331 5328 5326 5324 5322 5320 5318 5317 5315 5313
5599 5596 5593 5590 5586 5583 5579 5575 5571 5567 5563 5559 5554 5550 5545 5540 5535 5531 5526 5522 5517 5512 5506 5501 5496 5491 5486 5481 5476 5470 5465 5460 5456 5452 5447 5443 5440 5437 5434 5432 5429 5426 5422 5420 5418 5416 5413 5410 5408 5406 5403 5401 5398 5395 5392 5388 5385 5382 5380 5376 5372 5368 5364 5361 5357 5355 5352 5350 5347 5345 5343 5341 5339 5336 5334 5332 5329 5327 5325 5323 5321 5319 5317 5315 5313 5312
5597 5594 5591 5587 5584 5581 5577 5573 5569 5565 5561 5557 5552 5547 5542 5537 5532 5527 5522 5517 5513 5508 5503 5497 5492 5486 5481 5477 5472 5467 5462 5457 5452 5448 5444 5441 5438 5435 5432 5430 5427 5424 5420 5417 5415 5412 5410 5407 5404 5402 5400 5397 5395 5392 5389 5385 5382 5379 5377 5373 5370 5366 5362 5358 5355 5352 5350 5347 5346 5343 5341 5339 5337 5334 5332 5330 5328 5326 5324 5322 5320 5318 5316 5314 5312 5311
5595 5592 5588 5585 5582 5578 5574 5571 5567 5563 5559 5554 5550 5545 5540 5535 5530 5525 5519 5514 5509 5504 5498 5493 5487 5481 5475 5470 5466 5462 5459 5454 5450 5446 5442 5439 5436 5432 5430 5427 5424 5422 5418 5415 5412 5409 5407 5404 5401 5399 5397 5394 5392 5389 5386 5382 5379 5376 5372 5370 5367 5364 5360 5356 5353 5350 5348 5346 5344 5342 5340 5337 5335 5332 5330 5328 5326 5324 5322 5320 5319 5317 5316 5314 5312 5310
5593 5590 5586 5583 5579 5576 5572 5568 5564 5560 5556 5552 5547 5543 5538 5534 5529 5524 5519 5513 5508 5502 5497 5491 5486 5480 5474 5467 5462 5457 5454 5451 5447 5444 5440 5437 5433 5430 5427 5425 5422 5419 5416 5413 5410 5407 5404 5401 5398 5396 5393 5391 5388 5386 5382 5379 5376 5372 5369 5366 5363 5361 5358 5354 5351 5348 5346 5344 5342 5340 5338 5336 5333 5331 5328 5326 5324 5322 5321 5319 5317 5316 5315 5313 5311 5309
5590 5587 5584 5581 5577 5573 5570 5566 5562 5557 5553 5549 5544 5540 5536 5531 5527 5522 5517 5512 5507 5501 5496 5490 5484 5479 5473 5467 5461 5455 5451 5447 5444 5441 5438 5435 5432 5429 5426 5422 5419 5417 5414 5411 5408 5405 5402 5399 5396 5393 5391 5388 5385 5382 5379 5376 5373 5370 5366 5363 5361 5358 5355 5352 5350 5347 5345 5342 5340 5338 5336 5334 5331 5329 5327 5325 5322 5321 5319 5317 5316 5315 5313 5312 5310 5309
5588 5585 5582 5578 5575 5571 5567 5563 5559 5555 5551 5547 5542 5537 5533 5528 5524 5519 5514 5509 5504 5498 5493 5488 5483 5477 5471 5466 5460 5455 5449 5445 5441 5438 5436 5433 5430 5427 5424 5420 5417 5414 5411 5408 5405 5402 5399 5397 5394 5391 5388 5385 5382 5379 5376 5373 5370 5367 5364 5361 5358 5355 5352 5350 5348 5346 5344 5341 5339 5337 5334 5332 5329 5327 5325 5323 5321 5319 5318 5316 5315 5314 5312 5311 5309 5308
5586 5583 5580 5576 5572 5569 5565 5561 5557 5552 5548 5544 5540 5535 5531 5526 5521 5517 5512 5507 5502 5496 5490 5485 5481 5476 5470 5464 5459 5454 5449 5444 5440 5437 5434 5431 5428 5425 5422 5419 5415 5412 5408 5405 5402 5399 5397 5394 5392 5389 5387 5383 5380 5377 5374 5371 5367 5365 5362 5359 5356 5353 5351 5348 5346 5344 5342 5340 5338 5335 5333 5330 5328 5326 5324 5322 5320 5318 5317 5315 5314 5312 5311 5310 5308 5307
5584 5581 5577 5574 5570 5567 5562 5558 5554 5550 5546 5541 5537 5533 5528 5523 5518 5513 5508 5504 5499 5494 5488 5482 5477 5473 5468 5463 5459 5454 5449 5445 5441 5437 5433 5430 5427 5423 5420 5417 5413 5410 5406 5402 5399 5396 5393 5391 5389 5387 5385 5382 5379 5375 5372 5369 5366 5363 5360 5357 5355 5352 5349 5347 5344 5342 5341 5338 5336 5334 5331 5329 5326 5324 5322 5321 5319 5317 5316 5315 5313 5312 5311 5309 5308 5307
5582 5579 5575 5572 5568 5564 5560 5556 5552 5547 5543 5538 5534 5530 5525 5521 5516 5511 5505 5501 5496 5491 5485 5480 5474 5469 5465 5461 5457 5453 5449 5445 5442 5438 5434 5430 5426 5422 5419 5415 5412 5408 5404 5400 5397 5392 5389 5387 5384 5383 5382 5379 5377 5373 5370 5367 5364 5361 5358 5356 5353 5351 5348 5346 5343 5341 5339 5337 5335 5332 5330 5327 5326 5323 5322 5320 5319 5317 5316 5314 5313 5311 5310 5309 5307 5306
5580 5577 5573 5569 5566 5562 5558 5553 5549 5545 5541 5536 5531 5527 5522 5518 5514 5509 5503 5498 5492 5487 5482 5477 5472 5467 5462 5458 5454 5451 5448 5444 5441 5438 5434 5431 5427 5423 5419 5415 5411 5407 5403 5399 5395 5391 5387 5383 5380 5379 5377 5376 5374 5372 5369 5366 5362 5359 5357 5354 5352 5349 5347 5344 5342 5340 5337 5335 5333 5331 5329 5327 5325 5323 5321 5320 5318 5317 5315 5314 5312 5311 5310 5308 5307 5306
5578 5575 5571 5567 5563 5560 5556 5551 5547 5543 5538 5534 5529 5524 5519 5514 5510 5506 5501 5495 5490 5485 5480 5475 5470 5465 5460 5456 5452 5449 5446 5442 5439 5437 5433 5430 5427 5423 5419 5416 5412 5408 5403 5399 5395 5390 5385 5380 5377 5375 5374 5373 5371 5369 5367 5364 5361 5358 5355 5352 5350 5348 5345 5343 5341 5338 5336 5334 5332 5330 5328 5326 5324 5323 5321 5320 5318 5317 5315 5314 5312 5311 5310 5308 5307 5306
5576 5572 5569 5565 5562 5557 5553 5549 5545 5541 5536 5532 5527 5522 5517 5512 5507 5502 5497 5492 5487 5481 5476 5472 5467 5463 5458 5454 5450 5447 5444 5441 5438 5435 5432 5429 5425 5422 5419 5416 5412 5409 5405 5401 5397 5392 5387 5382 5376 5372 5371 5370 5369 5367 5365 5362 5360 5357 5354 5352 5349 5347 5345 5342 5340 5338 5336 5334 5332 5330 5328 5326 5324 5323 5322 5320 5318 5317 5315 5314 5313 5311 5310 5308 5307 5306
5574 5570 5567 5563 5559 5555 5551 5547 5542 5538 5534 5529 5524 5520 5515 5510 5505 5499 5494 5489 5483 5478 5472 5468 5464 5460 5457 5452 5449 5446 5443 5440 5437 5434 5430 5427 5424 5421 5417 5414 5411 5408 5405 5401 5397 5394 5390 5385 5379 5373 5369 5367 5367 5365 5363 5361 5359 5356 5353 5351 5348 5346 5344 5342 5339 5337 5335 5333 5332 5330 5328 5326 5325 5323 5322 5320 5318 5317 5315 5314 5313 5312 5310 5308 5307 5306